Starlink 31146

operational
NORAD ID: 58769 Int'l Des: 2024-011 Owner: SPXS Country: US Constellation: starlink
LEOCIRCULAR

Über Starlink 31146

Beschreibung wird geladen...

Live-Position

3D-Globus wird geladen...

Nächste Überflüge

Höhenverlauf

Altitude vs Time

uPlot chart will show altitude changes over time

Zweizeiliger Elementsatz

1 58769U 24011E 25352.51904429 .00000813 00000-0 39588-4 0 9993
2 58769 53.1611 30.6397 0001258 78.4900 281.6242 15.30192396107840
Epoch: 18. Dez. 2025 • Age: 10 hours

Aktueller Status

Höhe 479.9 km
Geschwindigkeit 7.63 km/s
Subsatellitenpunkt 48.72°N, 26.57°E
Startdatum 14. Jan. 2024
Alter 1.9 years
Typ internet

Technische Details

Klassifizierung Payload
Masse 730.00 kg
Trockenmasse 700.00 kg
Gesamtmasse 730.00 kg
Länge 0.30 m
Durchmesser 4.10 m
Spannweite 29.00 m
Form Box + pan
Hersteller SPXS
Bus-Typ Starlink V2M
Phasenstatus In Orbit
Besitzer/Staat SPXS/US

Große Konstellationen

Loading constellations...